This demonstration page uses our WeatherBlox Daily Observations layout. Learn more.

Left ArrowRight Arrow

38.88101, -77.10428

Hourly Observations for May 19, 2016

Temp ( °F °C ) Dew Point ( °F °C ) Humidity (%) Winds ( mph kmh ) Pressure ( in mb ) Visibility ( mi km ) Precip ( " mm )
12:52 am 00:52 Cloudy 58 14.4 48 8.9 70 70 NNE 6 9 30.11 1020 10 16 N/A
1:52 am 01:52 Cloudy 58 14.4 48 8.9 70 70 NE 6 9 30.10 1019 10 16 N/A
2:52 am 02:52 Cloudy 57 13.9 48 8.9 72 72 NNW 7 11 30.09 1019 10 16 N/A
3:52 am 03:52 Cloudy 57 13.9 48 8.9 72 72 NNW 5 7 30.10 1019 10 16 N/A
4:52 am 04:52 Cloudy 57 13.9 48 8.9 72 72 NNW 6 9 30.10 1019 10 16 N/A
5:52 am 05:52 Cloudy 56 13.3 49 9.4 77 77 NNW 9 15 30.10 1019 10 16 0.01 0.25
6:52 am 06:52 Cloudy 56 13.3 49 9.4 77 77 NNW 8 13 30.12 1020 10 16 N/A
7:52 am 07:52 Cloudy 57 13.9 49 9.4 74 74 NW 8 13 30.13 1020 10 16 N/A
8:52 am 08:52 Cloudy 59 15 49 9.4 69 69 N 6 9 30.14 1021 10 16 N/A
9:52 am 09:52 Cloudy 61 16.1 48 8.9 63 63 NW 6 9 30.16 1021 10 16 N/A
10:52 am 10:52 Cloudy 61 16.1 48 8.9 63 63 E 5 7 30.16 1022 10 16 N/A
11:52 am 11:52 Cloudy 63 17.2 48 8.9 58 58 NE 5 7 30.16 1021 10 16 N/A
12:52 pm 12:52 Cloudy 65 18.3 49 9.4 56 56 VRB 3 6 30.15 1021 10 16 N/A
1:52 pm 13:52 Mostly Cloudy 66 18.9 49 9.4 54 54 ESE 5 7 30.14 1021 10 16 N/A
2:52 pm 14:52 Mostly Cloudy 69 20.6 51 10.6 53 53 ESE 5 7 30.13 1020 10 16 N/A
3:52 pm 15:52 Mostly Cloudy 69 20.6 48 8.9 47 47 SE 3 6 30.11 1020 10 16 N/A
4:52 pm 16:52 Mostly Cloudy 68 20 50 10 53 53 VRB 5 7 30.10 1019 10 16 N/A
5:52 pm 17:52 Mostly Cloudy 69 20.6 50 10 51 51 S 8 13 30.10 1019 10 16 N/A
6:52 pm 18:52 Partly Cloudy 68 20 51 10.6 55 55 S 10 17 30.11 1020 10 16 N/A
7:52 pm 19:52 Partly Cloudy 67 19.4 49 9.4 53 53 SW 6 9 30.13 1020 10 16 N/A
8:52 pm 20:52 Mostly Clear 65 18.3 50 10 59 59 S 5 7 30.14 1021 10 16 N/A
9:52 pm 21:52 Clear 62 16.7 54 12.2 75 75 S 5 7 30.16 1021 10 16 N/A
10:52 pm 22:52 Clear 61 16.1 52 11.1 72 72 SW 5 7 30.17 1022 10 16 N/A
11:52 pm 23:52 Mostly Clear 61 16.1 52 11.1 72 72 S 3 6 30.18 1022 10 16 N/A

Powered by AerisWeather